User: anonymous   Login
Location: NJAA Observatory
(40.6819°N, 74.8979°W)
Time: 19:11:08
(UTC-05:00)
Language:

CENTAUR R/B - Orbit

View from above orbital plane
View from above orbital plane
View from above satellite
View from above satellite

Ground track
Ground track

The orbit data is extracted from the following two-line orbital elements,

1 26906U 01040B   17017.71875200 0.00000030  00000-0  36647-4 0    00
2 26906  63.4545 359.0455 0339000 342.3420  17.6580 13.44002757    06
Epoch (UTC): 17 January 2017 17:15:00
Eccentricity: 0.0339000
inclination: 63.4545°
perigee height: 841 km
apogee height: 1348 km
right ascension of ascending node: 359.0455°
argument of perigee: 342.3420°
revolutions per day: 13.44002757
mean anomaly at epoch: 17.6580°
orbit number at epoch: 0

The dashed part of the orbit path shows where the satellite is in the earth's shadow,  

DLR